| time (UTC) | temp C | wind direction | speed KPH | gust KPH | rain 1hr cm | rain 24hr cm | rain mn cm | humidity % | barometer mb |
| 20260504081604 | 15 | 102 | 9.7 | 16.1 | 0.00 | 0.00 | 0.00 | 54 | 1020.0 |
| 20260504081104 | 15 | 110 | 12.9 | 16.1 | 0.00 | 0.00 | 0.00 | 54 | 1020.0 |
| 20260504080604 | 16 | 81 | 8.0 | 11.3 | 0.00 | 0.00 | 0.00 | 52 | 1020.0 |
| 20260504080105 | 15 | 53 | 12.9 | 16.1 | 0.00 | 0.00 | 0.00 | 56 | 1020.0 |
| 20260504060104 | 15 | 281 | 8.0 | 9.7 | 0.00 | 0.03 | 0.00 | 59 | 1019.2 |
| 20260504045604 | 12 | 289 | 4.8 | 9.7 | 0.00 | 0.30 | 0.00 | 78 | 1019.0 |
| 20260504045105 | 11 | 298 | 3.2 | 8.0 | 0.00 | 0.38 | 0.00 | 81 | 1019.0 |
| 20260504044604 | 11 | 292 | 6.4 | 9.7 | 0.00 | 0.43 | 0.00 | 82 | 1018.9 |
| 20260504044104 | 11 | 225 | 4.8 | 9.7 | 0.00 | 0.51 | 0.00 | 84 | 1018.9 |
| 20260504043605 | 10 | 261 | 4.8 | 9.7 | 0.00 | 0.56 | 0.00 | 85 | 1018.9 |
| 20260504043104 | 10 | 248 | 8.0 | 9.7 | 0.00 | 0.64 | 0.00 | 87 | 1018.9 |
| 20260504042604 | 10 | 252 | 6.4 | 11.3 | 0.00 | 0.74 | 0.00 | 88 | 1018.9 |
| 20260504042104 | 9 | 257 | 8.0 | 9.7 | 0.00 | 0.84 | 0.00 | 88 | 1018.9 |
| 20260504041604 | 9 | 270 | 8.0 | 9.7 | 0.00 | 0.91 | 0.00 | 88 | 1018.9 |
| 20260504041105 | 9 | 260 | 4.8 | 9.7 | 0.00 | 0.97 | 0.00 | 88 | 1018.7 |
| 20260504040609 | 9 | 263 | 4.8 | 9.7 | 0.00 | 0.99 | 0.00 | 88 | 1018.7 |
| 20260504040106 | 8 | 267 | 3.2 | 8.0 | 0.00 | 0.99 | 0.00 | 87 | 1018.6 |
| 20260504034607 | 8 | 118 | 4.8 | 9.7 | 0.00 | 0.99 | 0.00 | 92 | 1018.6 |
| 20260504034105 | 8 | 36 | 8.0 | 9.7 | 0.00 | 0.99 | 0.00 | 93 | 1018.6 |
| 20260504033604 | 8 | 157 | 1.6 | 9.7 | 0.00 | 0.99 | 0.00 | 93 | 1018.5 |
| 20260504033104 | 7 | 50 | 6.4 | 9.7 | 0.00 | 0.99 | 0.00 | 94 | 1018.5 |
| 20260504032611 | 7 | 93 | 4.8 | 8.0 | 0.00 | 0.99 | 0.00 | 94 | 1018.5 |
| 20260504032104 | 7 | 336 | 3.2 | 8.0 | 0.00 | 0.99 | 0.00 | 94 | 1018.5 |
| 20260504031604 | 7 | 220 | 3.2 | 9.7 | 0.00 | 0.99 | 0.00 | 93 | 1018.5 |
| 20260504031104 | 7 | 13 | 6.4 | 9.7 | 0.00 | 0.99 | 0.00 | 93 | 1018.7 |
| 20260504030106 | 7 | 332 | 4.8 | 9.7 | 0.00 | 0.99 | 0.00 | 92 | 1018.6 |
| 20260504025604 | 7 | 268 | 6.4 | 11.3 | 0.00 | 0.99 | 0.00 | 92 | 1018.6 |
| 20260504025106 | 7 | 304 | 4.8 | 9.7 | 0.00 | 0.99 | 0.00 | 92 | 1018.6 |
| 20260504024604 | 7 | 335 | 4.8 | 11.3 | 0.00 | 0.99 | 0.00 | 91 | 1018.6 |
| 20260504024104 | 7 | 273 | 4.8 | 9.7 | 0.00 | 0.99 | 0.00 | 91 | 1018.6 |
| 20260504023605 | 7 | 149 | 4.8 | 9.7 | 0.00 | 0.99 | 0.00 | 91 | 1018.6 |
| 20260504023104 | 8 | 348 | 3.2 | 9.7 | 0.00 | 0.99 | 0.00 | 91 | 1018.6 |
| 20260504022604 | 8 | 328 | 8.0 | 9.7 | 0.00 | 0.99 | 0.00 | 91 | 1018.6 |
| 20260504022104 | 7 | 291 | 8.0 | 12.9 | 0.00 | 0.99 | 0.00 | 92 | 1018.6 |
| 20260504021604 | 7 | 3 | 9.7 | 14.5 | 0.00 | 0.99 | 0.00 | 93 | 1018.6 |
| 20260504021104 | 7 | 60 | 4.8 | 11.3 | 0.00 | 0.99 | 0.00 | 94 | 1018.6 |
| 20260504020605 | 6 | 251 | 8.0 | 12.9 | 0.00 | 0.99 | 0.00 | 94 | 1018.6 |
| 20260504015604 | 7 | 296 | 6.4 | 9.7 | 0.00 | 0.99 | 0.00 | 93 | 1018.6 |
| 20260504014622 | 7 | 313 | 4.8 | 8.0 | 0.00 | 0.99 | 0.00 | 91 | 1018.5 |
| 20260504013604 | 7 | 255 | 4.8 | 9.7 | 0.00 | 0.99 | 0.00 | 90 | 1018.7 |
| 20260504013104 | 7 | 235 | 4.8 | 8.0 | 0.00 | 0.99 | 0.00 | 90 | 1018.7 |
| 20260504012107 | 7 | 251 | 4.8 | 8.0 | 0.00 | 0.99 | 0.00 | 91 | 1018.6 |
| 20260504011604 | 7 | 270 | 6.4 | 9.7 | 0.00 | 0.99 | 0.00 | 91 | 1018.6 |
| 20260504011104 | 6 | 270 | 6.4 | 9.7 | 0.00 | 0.99 | 0.00 | 92 | 1018.6 |
| 20260504010615 | 6 | 292 | 8.0 | 9.7 | 0.00 | 0.99 | 0.00 | 92 | 1018.6 |
| 20260504010109 | 6 | 277 | 8.0 | 8.0 | 0.00 | 0.99 | 0.00 | 93 | 1018.6 |
| 20260504005611 | 6 | 270 | 8.0 | 9.7 | 0.00 | 0.99 | 0.00 | 93 | 1018.6 |
| 20260504005105 | 6 | 270 | 4.8 | 8.0 | 0.00 | 0.99 | 0.00 | 93 | 1018.6 |
| 20260504004604 | 6 | 286 | 8.0 | 9.7 | 0.00 | 0.99 | 0.00 | 92 | 1018.6 |
| 20260504004107 | 7 | 297 | 4.8 | 9.7 | 0.00 | 1.02 | 0.00 | 90 | 1018.6 |
| 20260504003604 | 7 | 292 | 6.4 | 9.7 | 0.00 | 1.02 | 0.00 | 88 | 1018.5 |
| 20260504003105 | 7 | 262 | 8.0 | 9.7 | 0.00 | 1.02 | 0.00 | 87 | 1018.5 |
| 20260504002604 | 7 | 248 | 9.7 | 11.3 | 0.00 | 1.02 | 0.00 | 87 | 1018.5 |
| 20260504001604 | 7 | 253 | 11.3 | 14.5 | 0.00 | 1.02 | 0.00 | 88 | 1018.6 |
| 20260504001104 | 7 | 258 | 4.8 | 9.7 | 0.00 | 1.02 | 0.00 | 88 | 1018.6 |
| 20260504000604 | 7 | 259 | 8.0 | 11.3 | 0.00 | 1.02 | 0.00 | 87 | 1018.6 |
| 20260504000104 | 8 | 242 | 6.4 | 12.9 | 0.00 | 1.02 | 0.00 | 84 | 1018.5 |
| 20260503235604 | 8 | 246 | 6.4 | 11.3 | 0.00 | 1.02 | 0.00 | 83 | 1018.4 |
| 20260503235105 | 8 | 338 | 8.0 | 11.3 | 0.00 | 1.02 | 0.00 | 83 | 1018.4 |
| 20260503234605 | 8 | 42 | 4.8 | 9.7 | 0.00 | 1.02 | 0.00 | 82 | 1018.5 |
| 20260503233107 | 8 | 353 | 8.0 | 14.5 | 0.00 | 1.02 | 0.00 | 81 | 1018.5 |
| 20260503232605 | 8 | 115 | 8.0 | 16.1 | 0.00 | 1.02 | 0.00 | 81 | 1018.5 |
| 20260503231104 | 8 | 284 | 8.0 | 14.5 | 0.00 | 1.02 | 0.00 | 85 | 1018.5 |
| 20260503230105 | 7 | 121 | 6.4 | 9.7 | 0.00 | 1.02 | 0.00 | 90 | 1018.6 |
| 20260503224607 | 6 | 270 | 8.0 | 12.9 | 0.00 | 1.02 | 0.00 | 92 | 1018.7 |
| 20260503224105 | 6 | 270 | 8.0 | 9.7 | 0.00 | 1.02 | 0.00 | 92 | 1018.7 |
| 20260503223604 | 6 | 257 | 6.4 | 9.7 | 0.00 | 1.02 | 0.00 | 92 | 1018.7 |
| 20260503223104 | 6 | 258 | 6.4 | 9.7 | 0.00 | 1.02 | 0.00 | 92 | 1018.7 |
| 20260503222104 | 7 | 283 | 4.8 | 9.7 | 0.00 | 1.02 | 0.00 | 90 | 1018.7 |
| 20260503220605 | 7 | 283 | 8.0 | 12.9 | 0.00 | 1.02 | 0.00 | 87 | 1018.6 |
| 20260503220105 | 7 | 260 | 9.7 | 12.9 | 0.00 | 1.02 | 0.00 | 84 | 1018.6 |
| 20260503215107 | 8 | 242 | 9.7 | 14.5 | 0.00 | 1.02 | 0.00 | 83 | 1018.6 |
| 20260503214104 | 7 | 238 | 8.0 | 11.3 | 0.00 | 1.02 | 0.00 | 85 | 1018.6 |
| 20260503213604 | 7 | 334 | 9.7 | 14.5 | 0.00 | 1.04 | 0.00 | 88 | 1018.6 |
| 20260503213104 | 7 | 261 | 8.0 | 11.3 | 0.00 | 1.07 | 0.00 | 88 | 1018.6 |
| 20260503212604 | 7 | 265 | 8.0 | 12.9 | 0.00 | 1.07 | 0.00 | 88 | 1018.6 |
| 20260503212107 | 7 | 269 | 8.0 | 11.3 | 0.00 | 1.07 | 0.00 | 88 | 1018.7 |
| 20260503210111 | 7 | 251 | 6.4 | 9.7 | 0.00 | 1.07 | 0.00 | 88 | 1018.6 |
| 20260503205604 | 7 | 322 | 4.8 | 11.3 | 0.00 | 1.07 | 1.07 | 87 | 1018.6 |
| 20260503205107 | 7 | 300 | 8.0 | 11.3 | 0.00 | 1.07 | 1.07 | 87 | 1018.6 |
| 20260503204605 | 7 | 189 | 3.2 | 9.7 | 0.00 | 1.07 | 1.07 | 87 | 1018.7 |
| 20260503203611 | 7 | 350 | 8.0 | 9.7 | 0.00 | 1.07 | 1.07 | 86 | 1018.7 |
| 20260503203104 | 7 | 323 | 8.0 | 12.9 | 0.00 | 1.07 | 1.07 | 86 | 1018.7 |
| 20260503202604 | 7 | 262 | 9.7 | 14.5 | 0.00 | 1.07 | 1.07 | 86 | 1018.7 |
| 20260503201606 | 7 | 319 | 8.0 | 14.5 | 0.00 | 1.07 | 1.07 | 86 | 1018.6 |
| 20260503201104 | 7 | 255 | 9.7 | 14.5 | 0.00 | 1.07 | 1.07 | 86 | 1018.6 |
| 20260503195604 | 7 | 246 | 8.0 | 14.5 | 0.00 | 1.07 | 1.07 | 85 | 1018.6 |
| 20260503195107 | 8 | 131 | 6.4 | 19.3 | 0.00 | 1.07 | 1.07 | 85 | 1018.6 |
| 20260503194104 | 8 | 262 | 9.7 | 12.9 | 0.00 | 1.07 | 1.07 | 83 | 1018.6 |
| 20260503193605 | 8 | 292 | 11.3 | 19.3 | 0.00 | 1.07 | 1.07 | 83 | 1018.7 |
| 20260503193107 | 8 | 268 | 9.7 | 14.5 | 0.00 | 1.07 | 1.07 | 82 | 1018.7 |
| 20260503192604 | 8 | 239 | 11.3 | 12.9 | 0.00 | 1.07 | 1.07 | 82 | 1018.7 |
| 20260503192104 | 8 | 309 | 9.7 | 19.3 | 0.00 | 1.07 | 1.07 | 82 | 1018.6 |
| 20260503191604 | 8 | 283 | 9.7 | 14.5 | 0.00 | 1.07 | 1.07 | 82 | 1018.6 |
| 20260503191106 | 8 | 331 | 9.7 | 16.1 | 0.00 | 1.07 | 1.07 | 82 | 1018.5 |
| 20260503190605 | 8 | 323 | 11.3 | 16.1 | 0.00 | 1.07 | 1.07 | 82 | 1018.5 |
| 20260503190108 | 8 | 328 | 9.7 | 19.3 | 0.00 | 1.07 | 1.07 | 84 | 1018.3 |
| 20260503185110 | 8 | 301 | 9.7 | 11.3 | 0.00 | 1.07 | 1.07 | 84 | 1018.3 |
| 20260503184607 | 8 | 289 | 11.3 | 19.3 | 0.00 | 1.07 | 1.07 | 84 | 1018.3 |
| 20260503184104 | 8 | 271 | 8.0 | 16.1 | 0.00 | 1.07 | 1.07 | 84 | 1018.3 |
| 20260503183604 | 8 | 332 | 8.0 | 20.9 | 0.00 | 1.07 | 1.07 | 83 | 1018.0 |
| 20260503183104 | 8 | 258 | 8.0 | 14.5 | 0.00 | 1.07 | 1.07 | 83 | 1018.0 |
| 20260503182604 | 8 | 245 | 11.3 | 14.5 | 0.00 | 1.07 | 1.07 | 82 | 1018.0 |
| 20260503182104 | 8 | 326 | 8.0 | 16.1 | 0.00 | 1.07 | 1.07 | 82 | 1017.8 |
| 20260503181604 | 8 | 264 | 9.7 | 19.3 | 0.00 | 1.07 | 1.07 | 81 | 1017.8 |
| 20260503181119 | 8 | 149 | 8.0 | 12.9 | 0.00 | 1.07 | 1.07 | 82 | 1017.6 |
| 20260503180604 | 8 | 246 | 11.3 | 16.1 | 0.00 | 1.07 | 1.07 | 82 | 1017.6 |
| 20260503180112 | 8 | 18 | 9.7 | 16.1 | 0.00 | 1.07 | 1.07 | 82 | 1017.5 |
| 20260503175105 | 8 | 329 | 11.3 | 19.3 | 0.00 | 1.07 | 1.07 | 80 | 1017.5 |
| 20260503174104 | 8 | 158 | 12.9 | 20.9 | 0.00 | 1.07 | 1.07 | 81 | 1017.3 |
| 20260503173604 | 8 | 207 | 8.0 | 12.9 | 0.00 | 1.07 | 1.07 | 80 | 1017.2 |
| 20260503173104 | 8 | 262 | 8.0 | 22.5 | 0.00 | 1.07 | 1.07 | 79 | 1017.2 |
| 20260503172605 | 8 | 21 | 9.7 | 19.3 | 0.00 | 1.07 | 1.07 | 78 | 1017.2 |
| 20260503171604 | 9 | 348 | 9.7 | 19.3 | 0.00 | 1.07 | 1.07 | 74 | 1017.1 |
| 20260503171112 | 9 | 20 | 9.7 | 24.1 | 0.00 | 1.07 | 1.07 | 73 | 1016.8 |
| 20260503170611 | 9 | 282 | 12.9 | 25.7 | 0.00 | 1.07 | 1.07 | 69 | 1016.8 |
| 20260503170104 | 9 | 59 | 19.3 | 25.7 | 0.00 | 1.07 | 1.07 | 68 | 1016.6 |
| 20260503160105 | 10 | 337 | 11.3 | 19.3 | 0.00 | 1.07 | 1.07 | 66 | 1016.6 |
| 20260503150604 | 10 | 301 | 19.3 | 27.4 | 0.00 | 1.07 | 1.07 | 66 | 1016.5 |
| 20260503150105 | 10 | 109 | 12.9 | 25.7 | 0.00 | 1.07 | 1.07 | 64 | 1016.4 |
| 20260503140105 | 11 | 349 | 16.1 | 25.7 | 0.00 | 1.07 | 1.07 | 65 | 1016.5 |
| 20260503131105 | 11 | 81 | 14.5 | 29.0 | 0.00 | 1.07 | 1.07 | 71 | 1016.4 |
| 20260503130604 | 12 | 47 | 19.3 | 29.0 | 0.00 | 1.07 | 1.07 | 67 | 1016.4 |
| 20260503130104 | 12 | 16 | 16.1 | 25.7 | 0.00 | 1.07 | 1.07 | 67 | 1016.4 |
| 20260503110605 | 11 | 107 | 11.3 | 20.9 | 0.00 | 1.07 | 1.07 | 78 | 1016.8 |
| 20260503110104 | 11 | 121 | 11.3 | 24.1 | 0.00 | 1.07 | 1.07 | 78 | 1016.8 |
| 20260503090105 | 12 | 343 | 12.9 | 19.3 | 0.00 | 1.07 | 1.07 | 71 | 1016.6 |